sat.trackr.live / text

‹ back to catalog

STARLINK-3843

NORAD 52341 · 2022-045L

PAYLOAD ACTIVE UNKNOWN

§ Identity

Operator
Country
US
Launch date
2022-04-29
Launch site
AFETR
Launch vehicle
Mass (kg)
RCS (m²)

Purposes: comms

External: N2YO · Heavens-Above · Gunter

§ Orbital elements

Epoch: 2026-05-25T04:46:31.097856Z

Period
95.44 min
Inclination
53.2138°
Eccentricity
0.0001099
Mean motion
15.08842084 rev/d
Perigee alt
539.0 km
Apogee alt
540.5 km
Semi-major
6,917.9 km
B*
1.2876e-4
RAAN
225.6086°
Arg perigee
81.1278°
Mean anomaly
278.9838°
Rev number
22,719

§ Raw data

STARLINK-38431 52341U 22045L   26145.19897104  .00001762  00000+0  12876-3 0  99972 52341  53.2138 225.6086 0001099  81.1278 278.9838 15.08842084227190

JSON: /api/v1/satellites/52341 · /tle

For live sub-satellite position, see the globe view (requires WebGL).

§ Visibility from observer

Set your observer location to see the next 7 days of passes ≥ 10°. The values pass through the URL so the page stays shareable.

No JS? Fill the form by hand. The geolocation button needs JavaScript.